Hourly Data Report for April 09, 2012

HALIFAX STANFIELD INT'L A
NOVA SCOTIA

44°52'48.060" N
63°30'00.050" W
145.40 m
8202250
71395
YHZ

Download Data

Hourly Data (April 2012)
Hourly Data Report for April 9, 2012
TIME
LST
Temp Definition
°C
Dew Point Definition
°C
Rel Hum Definition
%
Precip. Amount Definition
mm

Wind Dir Definition
10's deg

Wind Spd Definition
km/h
Visibility Definition
km
Stn Press Definition
kPa
Hmdx Definition


Wind Chill Definition


Weather Definition


00:00 0.3 0.1 99   18 20 4.0 98.65     Snow Showers
01:00 0.0 -0.4 97   18 20 24.1 98.60   -5 Mostly Cloudy
02:00 0.3 -0.1 97   18 22 24.1 98.58     Cloudy
03:00 0.5 0.1 97   17 20 19.3 98.55     Snow Showers
04:00 0.8 0.5 98   17 20 19.3 98.53     Snow Showers
05:00 1.0 0.7 98   17 20 16.1 98.51     Snow Showers
06:00 1.3 1.0 98   16 17 9.7 98.51     Rain Showers,Snow Showers
07:00 1.6 1.2 97   17 20 9.7 98.53     Rain Showers,Snow Showers, Fog
08:00 2.2 2.0 99   18 26 16.1 98.55     Rain Showers
09:00 3.6 3.1 97   17 24 24.1 98.56     Cloudy
10:00 6.3 3.8 84   17 28 24.1 98.51     Mostly Cloudy
11:00 7.3 3.1 75   17 30 24.1 98.43     Mostly Cloudy
12:00 4.9 3.2 89   14 26 24.1 98.36     Rain Showers
13:00 5.8 2.2 78   14 24 24.1 98.29     Rain Showers
14:00 6.0 2.9 80   15 28 24.1 98.21     Cloudy
15:00 5.6 3.5 86   15 20 16.1 98.18     Rain Showers
16:00 5.3 4.6 95   13 17 16.1 98.11     Rain Showers
17:00 7.6 5.7 88   17 30 24.1 98.04     Mainly Clear
18:00 6.1 2.3 77   18 35 24.1 98.08     Mainly Clear
19:00 4.8 1.9 81   20 32 24.1 98.13     Mainly Clear
20:00 3.8 2.5 91   19 26 24.1 98.24     Mainly Clear
21:00 3.6 2.7 94   20 20 24.1 98.29     Mostly Cloudy
22:00 3.8 2.9 94   20 28 24.1 98.33     Cloudy
23:00 3.8 2.7 93   18 24 24.1 98.38     Cloudy

Notes on Data Quality.

Legend

  • E = Estimated
  • M = Missing
  • NA = Not Available*
  • [empty] = Indicates an unobserved value
Date modified: